Location: Chequamegon National Forest
(46.1070°N, 90.8420°W)
Time: 18:39:56
(UTC-05:00)

Daily predictions for brighter satellites

Satellite Brightness Start Highest point End
(mag) Time Altitude Azimuth Time Altitude Azimuth Time Altitude Azimuth
Cosmos 1452 Rocket 3.6 21:05:14 10° S 21:10:25 62° ESE 21:15:38 10° NNE
Cosmos 1238 Rocket 2.9 21:08:46 10° N 21:11:59 47° E 21:15:44 10° SSE
BREEZE-M DEB (TANK) 1.2 21:10:26 10° WSW 21:12:35 72° NNW 21:14:52 10° ENE
Cosmos 1862 3.6 21:08:54 10° S 21:12:51 51° E 21:16:50 10° NNE
Cosmos 1892 4.3 21:10:23 10° SSW 21:14:01 40° WNW 21:17:43 10° N
Cosmos 2341 Rocket 4.3 21:08:50 10° SSE 21:14:52 51° E 21:20:53 10° NNE
H-2A R/B 4.0 21:12:45 10° E 21:15:51 16° ENE 21:18:55 10° NNE
Cosmos 1184 Rocket 3.4 21:15:31 10° SSE 21:18:38 38° E 21:21:46 10° NNE
deb Chang Zheng 4 3.9 21:14:41 10° NNE 21:18:59 47° E 21:23:16 10° S
SPOT 5 3.4 21:15:05 10° SE 21:20:14 53° ENE 21:25:27 10° N
Meteor 1-27 Rocket 3.8 21:18:41 10° NNW 21:24:17 81° W 21:29:47 10° S
Gbstr 26 Del rocket 4.1 21:20:49 10° WNW 21:26:23 52° NNE 21:30:52 10° E
Cosmos 1242 Rocket 3.0 21:24:12 10° N 21:27:46 48° ENE 21:31:22 10° SSE
Timation 2 Rocket 3.9 21:22:03 10° NNW 21:28:05 76° ENE 21:34:03 10° SSE
Elektron 3 3.8 21:25:31 10° NW 21:28:22 89° NE 21:31:54 11° SE
USA 245 4.5 21:25:48 11° SE 21:28:55 30° ENE 21:32:51 10° N
SPOT 1/Viking Rocket 4.3 21:26:15 10° SE 21:31:03 39° ENE 21:35:53 10° N
ARGOS 3.9 21:27:48 10° SE 21:32:37 37° ENE 21:37:30 10° N
H-2A R/B 2.1 21:30:43 10° SSE 21:35:00 86° WSW 21:39:13 10° NNW
YAOGAN 6 3.1 21:33:23 12° SE 21:36:25 42° ENE 21:39:47 10° N
Cosmos 2154 Rocket 4.1 21:31:58 10° S 21:38:11 87° W 21:44:26 10° N
Cosmos 1408 2.5 21:35:09 10° S 21:38:48 89° ESE 21:42:28 10° N
Cosmos 1850 Rocket 4.1 21:34:26 10° NNW 21:39:48 75° ENE 21:44:49 12° SSE
COS B Rocket 3.4 21:39:17 10° N 21:43:19 74° W 21:46:54 10° S
USA 229 DEB 3.9 21:36:54 10° NW 21:43:59 70° NE 21:50:15 14° SE
USA 229 3.9 21:37:00 10° NW 21:44:06 69° NE 21:50:21 14° SE
Okean 3 3.7 21:40:42 10° NNW 21:45:00 74° W 21:49:13 10° S
Cosmos 1825 2.9 21:52:27 10° SSW 21:56:12 56° WNW 21:59:59 10° N
Cosmos 1939 Rocket 4.1 21:53:20 10° SSW 21:56:58 38° W 22:00:42 10° NNW
Cosmos 1833 Rocket 2.9 21:51:25 10° NNW 21:57:01 62° ENE 22:01:16 18° SE
MetOp-A 4.2 21:52:13 10° SSE 21:57:32 88° WSW 22:02:56 10° NNW
Cosmos 1741 Rocket 4.1 21:56:10 10° NNW 22:01:25 76° WSW 22:05:51 14° SSE
Cosmos 2366 rocket 4.2 21:57:17 11° SSE 22:03:13 52° E 22:09:21 10° NNE
Cosmos 1844 Rocket 4.4 21:58:02 10° WSW 22:03:15 37° NW 22:08:29 10° NNE
SL-8 R/B 4.1 21:59:47 10° W 22:04:36 66° N 22:09:24 10° E
Cosmos 2278 Rocket 2.6 21:59:43 10° SW 22:05:21 66° WNW 22:11:03 10° NNE
CZ-4 R/B 4.3 22:04:11 10° NNE 22:08:35 39° E 22:11:24 20° SSE
Okean 2 Rocket 3.5 22:07:06 10° SSW 22:11:29 65° W 22:15:52 10° N
Okean 1 4.3 22:09:13 10° N 22:12:56 32° ENE 22:14:37 23° ESE
PSLV R/B 3.9 22:11:01 16° S 22:13:07 45° W 22:15:59 10° NNW
CZ-4 SHROUD 4.1 22:14:24 16° S 22:16:34 45° W 22:19:34 10° NNW
Cosmos 1110 Rocket 4.5 22:13:24 18° SSE 22:16:48 39° ESE 22:21:38 10° NE
Envisat 4.4 22:13:44 10° SSW 22:18:22 35° W 22:23:03 10° NNW
UNK 4.4 22:13:18 10° NNE 22:19:33 85° ESE 22:25:29 10° SSW
Cosmos 614 Rocket 4.4 22:16:02 10° NNW 22:21:00 56° WSW 22:24:52 16° S
Cosmos 2082 Rocket 2.4 22:17:10 10° NNW 22:22:51 70° WSW 22:26:48 20° SSE
SL-08 RB Rocket 3.7 22:21:36 23° SSE 22:24:32 83° ENE 22:29:13 10° NNW
Cosmos 1812 3.0 22:22:00 10° N 22:25:47 51° ENE 22:27:16 32° SE
Landsat 7 3.9 22:23:53 25° SE 22:26:32 62° ENE 22:31:15 10° N
Meteor 1-18 Rocket 4.3 22:23:38 10° N 22:29:35 86° E 22:33:37 22° SSE
NOSS 3-1 (C) 4.3 22:23:59 10° NW 22:31:17 61° NE 22:37:01 21° ESE
APEX 4.4 22:28:57 10° SW 22:33:06 58° WNW 22:38:34 10° NNE
Cosmos 2218 Rocket 4.1 22:27:15 10° S 22:33:40 84° W 22:40:06 10° N
CARTOSAT-1 3.9 22:32:46 30° SE 22:34:34 52° ENE 22:38:47 10° N
AVUM R/B 3.6 22:31:48 10° NW 22:35:17 62° WSW 22:36:27 37° S
Meteor 2-19 Rocket 4.4 22:33:07 19° S 22:37:38 69° E 22:43:42 10° NNE
Meteor 1-14 Rocket 4.5 22:32:36 10° SSW 22:38:14 69° WNW 22:43:48 10° N
BREEZE-M TANK 3.3 22:27:10 10° W 22:39:46 83° S 22:42:07 24° E
ISS -2.1 22:38:54 10° W 22:42:02 42° NNW 22:45:10 10° ENE
Cosmos 1486 Rocket 4.2 22:36:53 10° NNW 22:42:12 61° ENE 22:44:40 31° SE
Terra 1.9 22:40:06 31° SE 22:42:14 63° ENE 22:46:57 10° N
USA 234 4.0 22:36:49 10° ENE 22:42:23 29° SE 22:43:56 26° SSE
Cosmos 2297 4.1 22:37:16 10° SW 22:42:56 65° WNW 22:48:41 10° NNE
Cosmos 1536 Rocket 3.9 22:39:44 10° NNW 22:44:12 65° W 22:46:41 25° S
Cosmos 1727 Rocket 4.0 22:38:22 10° N 22:44:34 79° W 22:48:47 22° S
CZ-4B R/B 3.6 22:39:49 10° N 22:44:45 72° WNW 22:49:14 12° SSW
DELTA 2 DEB (DPAF) 4.1 22:45:28 32° SSE 22:47:30 86° WSW 22:52:01 10° NNW
H-2A R/B 2.1 22:51:51 30° SSE 22:54:35 87° WSW 22:59:53 10° NNW
Lacrosse 5 rocket 2.0 22:57:31 33° E 22:57:31 33° E 22:59:56 10° ENE
Spot 4 3.9 22:58:36 38° SE 23:00:23 71° ENE 23:05:14 10° N
IGS 5A 3.4 23:01:46 47° SSE 23:02:57 90° S 23:07:09 10° NNW
Meteor 1-11 Rocket 4.1 23:01:37 35° SE 23:03:41 50° E 23:09:14 10° NNE
Cosmos 1633 3.9 23:09:39 28° ENE 23:09:39 28° ENE 23:12:23 10° NNE
Cosmos 1302 Rocket 4.0 23:09:42 39° S 23:11:30 62° ESE 23:16:43 10° NNE
Cosmos 2369 Rocket 2.9 23:11:23 33° ESE 23:11:54 34° ESE 23:16:55 10° NE
Lacrosse 5 1.9 23:10:52 37° S 23:12:29 53° SE 23:17:26 10° ENE
ARGOS 4.4 23:09:19 16° SSW 23:12:52 34° W 23:17:43 10° NNW
Gbstr 26 Del rocket 3.1 23:08:35 10° WNW 23:13:33 61° SW 23:14:16 52° S
Cosmos 1025 Rocket 3.3 23:10:24 10° N 23:14:45 55° ENE 23:15:28 48° ESE
CZ-4C R/B 4.3 23:14:35 31° SW 23:15:52 41° W 23:19:51 10° NNW
Cosmos 1821 Rocket 4.1 23:17:02 37° SSE 23:19:24 61° E 23:25:31 10° NNE
Cosmos 2098 4.4 23:21:57 79° S 23:22:09 90° ESE 23:26:24 10° N
Cosmos 1400 Rocket 2.8 23:25:09 62° ESE 23:25:18 62° E 23:29:25 10° NNE
Meteor 1-23 Rocket 4.4 23:20:04 10° N 23:25:35 58° ENE 23:27:09 42° SE
Cosmos 1455 Rocket 4.4 23:27:32 26° E 23:27:32 26° E 23:30:50 10° NNE
Meteor 2-21 4.4 23:24:49 38° S 23:27:21 77° E 23:33:34 10° NNE
Cosmos 1300 Rocket 4.1 23:26:14 31° SW 23:28:05 54° WNW 23:32:28 10° N
Cosmos 1934 Rocket 4.0 23:26:34 41° SSE 23:28:27 59° E 23:34:24 10° NNE
Cosmos 1536 3.0 23:28:54 56° E 23:28:54 56° E 23:32:40 10° NNE
ASTEX 1 3.4 23:24:24 10° N 23:29:22 78° W 23:31:05 42° SSW
Meteor 1-19 Rocket 4.2 23:24:08 10° N 23:30:02 90° ENE 23:32:00 44° S
Iridium 4 Rocket 3.8 23:24:21 10° N 23:30:17 73° E 23:32:10 45° SSE
Cosmos 2285 Rocket 4.2 23:29:54 41° SSE 23:31:45 55° ESE 23:37:58 10° NNE
Cosmos 1809 Rocket 4.4 23:29:36 38° S 23:32:10 83° E 23:38:24 10° N
Cosmos 2123 Rocket 4.1 23:28:42 10° N 23:34:57 66° ENE 23:36:59 43° SE
Okean 1 Rocket 3.7 23:33:27 34° SW 23:35:06 53° WNW 23:39:29 10° N
ALOS 2 3.9 23:35:44 26° E 23:36:23 27° ENE 23:40:05 10° N
SAR-Lupe-2 4.1 23:37:30 48° W 23:37:30 48° W 23:41:00 10° NNW
Cosmos 1943 Rocket 3.5 23:40:42 24° E 23:40:42 24° E 23:44:40 10° NE
Cosmos 1833 Rocket 4.5 23:36:18 10° NW 23:40:27 22° W 23:42:58 16° SW
SL-8 R/B 3.6 23:42:33 10° WNW 23:47:24 88° NNE 23:48:18 59° ESE
Meteor 1-5 Rocket 4.3 23:49:22 48° ESE 23:49:58 50° E 23:55:06 10° NNE
Cosmos 1503 Rocket 4.0 23:45:18 10° NNW 23:50:32 71° WSW 23:51:35 55° SSW
IKONOS-2 4.4 23:53:05 80° ESE 23:53:14 83° ENE 23:57:30 10° NNW
CZ-4B R/B 3.4 23:57:07 20° NE 23:57:07 20° NE 23:58:52 10° NNE
